Starlink 32075

operational
NORAD ID: 60345 Int'l Des: 2024-136 Owner: SPXS Country: US Constellation: starlink
LEOCIRCULAR

About Starlink 32075

Description loading...

Live Position

Loading 3D Globe...

Upcoming Passes

Altitude History

Altitude vs Time

uPlot chart will show altitude changes over time

Two-Line Element Set

1 60345U 24136S 25354.44175402 .00000691 00000-0 35455-4 0 9992
2 60345 53.1594 83.5994 0001426 95.0031 265.1132 15.30188348 77539
Epoch: Dec 20, 2025 • Age: 6 hours

Current Status

Altitude 475.8 km
Velocity 7.63 km/s
Sub-Earth Point 3.44°N, 102.06°E
Launch Date Aug 2, 2024
Age 1.3 years
Type internet

Technical Details

Classification Payload
Mass 730.00 kg
Dry Mass 700.00 kg
Total Mass 730.00 kg
Length 0.30 m
Diameter 4.10 m
Span 29.00 m
Shape Box + pan
Manufacturer SPXS
Bus Type Starlink V2M
Phase Status In Orbit
Owner/State SPXS/US

Large Constellations

Loading constellations...